Regional Weather Roundup
Issued by NWS

Home | Current Version | Previous Version | Text Only | Print | Product List | Glossary On
Versions: 1 2 3 4 5 6 7 8 9 10 11 12 13 14 15 16 17 18 19 20 21 22 23 24 25 26 27 28 29 30 31 32 33 34 35 36 37 38 39 40 41 42 43 44 45 46 47 48 49 50
000
ASUS43 KMKX 011000
RWRWI

WISCONSIN REGIONAL WEATHER ROUNDUP
NATIONAL WEATHER SERVICE MILWAUKEE/SULLIVAN WI
500 AM CDT WED OCT 01 2014

NOTE: "FAIR" INDICATES FEW OR NO CLOUDS BELOW 12,000 FEET WITH NO
SIGNIFICANT WEATHER AND/OR OBSTRUCTIONS TO VISIBILITY.

WIZ001-002-006>008-014>016-023>028-011100-
NORTHWEST WISCONSIN

CITY           SKY/WX    TMP DP  RH WIND       PRES   REMARKS
SUPERIOR ARPT  CLOUDY    47  44  88 E5        29.90F
ASHLAND        MOCLDY    44  41  89 CALM      29.94S
HAYWARD        CLOUDY    47  43  86 SE9       29.92F
SIREN          CLOUDY    48  43  82 SE12      29.87F
CUMBERLAND     CLOUDY    45  41  87 SE9G17    29.90F
RICE LAKE      CLOUDY    47  43  84 SE15G21   29.92F
CHETEK         CLOUDY    47  43  88 E8G17     29.93S
LADYSMITH      CLOUDY    47  43  87 SE6       29.97F
EAU CLAIRE     CLOUDY    48  43  82 SE13G21   29.93F
MENOMONIE      CLOUDY    48  43  84 SE10      29.93R
NEW RICHMOND   MOCLDY    47  42  82 SE6       29.88S
OSCEOLA        CLOUDY    49  44  83 SE12      29.90S
$$

WIZ003>005-009-010-017-018-011100-
NORTH CENTRAL WISCONSIN

CITY           SKY/WX    TMP DP  RH WIND       PRES   REMARKS
MANITOWISH WTR CLOUDY    43  43 100 S14       29.97F
ARBOR VITAE    CLOUDY    44  42  93 S6        29.99S FOG
WOODRUFF       CLOUDY    44  42  93 S6        29.99S FOG
RHINELANDER    CLOUDY    43  42  97 S6        30.01S FOG
EAGLE RIVER    CLOUDY    43  43 100 S5        30.00R FOG
LAND O LAKES   CLOUDY    44  44  98 S9        29.99S FOG
PHILLIPS       CLOUDY    44  42  92 SE9       29.97S
TOMAHAWK       CLOUDY    43  41  95 SE6       30.00F FOG
MEDFORD        CLOUDY    44  43  97 SE7       29.97F FOG
MERRILL        CLOUDY    44  44 100 S5        30.01S FOG
$$

WIZ029-030-035-036-043>047-011100-
CENTRAL WISCONSIN

CITY           SKY/WX    TMP DP  RH WIND       PRES   REMARKS
WAUSAU         CLOUDY    45  44  97 SE7       30.00S FOG
MOSINEE        CLOUDY    43  43 100 CALM      30.01F FOG
MARSHFIELD     CLOUDY    47  43  86 SE13      29.99S
STEVENS POINT  DRIZZLE   44  44  99 CALM      30.01S
WAUPACA        CLOUDY    49  48  95 CALM      30.01F FOG
WAUTOMA        NOT AVBL
WISC RAPIDS    CLOUDY    46  45  96 SE3       30.02R FOG
CAMP DOUGLAS   NOT AVBL
$$

WIZ011>013-019>022-031-037>040-048>050-011100-
NORTHEAST WISCONSIN

CITY           SKY/WX    TMP DP  RH WIND       PRES   REMARKS
ANTIGO         CLOUDY    43  43 100 S5        30.01S FOG
SHAWANO        CLOUDY    48  47  93 CALM      30.03S FOG
OCONTO         CLOUDY    50  50 100 S3        30.02F
STURGEON BAY   NOT AVBL
GREEN BAY      CLOUDY    49  49 100 CALM      30.02F FOG
MANITOWOC      NOT AVBL
APPLETON       CLOUDY    46  46 100 E5        30.01F FOG
CLINTONVILLE   CLOUDY    45  45 100 CALM      30.02F FOG
OSHKOSH        CLOUDY    50  49  96 CALM      30.00F
$$

WIZ032>034-041-042-053>061-011100-
SOUTHWEST WISCONSIN

CITY           SKY/WX    TMP DP  RH WIND       PRES   REMARKS
LA CROSSE      CLOUDY    50  44  80 SE8       29.95S
SPARTA         CLOUDY    47  43  85 E8        29.98S
VIROQUA        CLOUDY    46  46 100 SE9G17    29.95F
BOSCOBEL       CLOUDY    51  46  83 VRB3      29.97F
PRAIRIE DU CHI CLOUDY    49  45  83 E8        29.96R
PLATTEVILLE    MOCLDY    49  47  91 E9        29.97S
$$

WIZ056-057-062-063-064-067-068-011100-
SOUTH CENTRAL WISCONSIN

CITY           SKY/WX    TMP DP  RH WIND       PRES   REMARKS
REEDSBURG      CLOUDY    49  46  90 SE8       29.98F
BARABOO/DELLS  CLOUDY    47  45  91 CALM      29.99S
LONE ROCK      NOT AVBL
MINERAL POINT  CLOUDY    50  46  87 E12       29.97S
MADISON        CLOUDY    50  46  86 CALM      29.99S
MIDDLETON      CLOUDY    51  48  89 CALM      30.00S
WATERTOWN      CLOUDY    48  48 100 CALM      29.99R
MONROE         CLOUDY    48  46  93 E5        29.98S
JANESVILLE     CLOUDY    52  46  82 E3        29.98S
$$

WIZ051-052-058>065-066-070>072-011100-
SOUTHEAST WISCONSIN

CITY           SKY/WX    TMP DP  RH WIND       PRES   REMARKS
MILWAUKEE      CLOUDY    56  48  74 SE8       30.00S
WAUKESHA       CLOUDY    48  46  93 E5        30.00S
MILWAUKEE/TIMM CLOUDY    52  48  87 CALM      30.01S
RACINE         CLOUDY    57  47  69 SE8       30.01F
BURLINGTON     CLOUDY    51  47  87 SE7       29.99S
KENOSHA        CLOUDY    55  48  77 SE13      30.00F
FOND DU LAC    CLOUDY    50  47  89 CALM      30.00F
SHEBOYGAN      CLOUDY    52  49  89 S3        30.01
WEST BEND      CLOUDY    50  46  87 CALM      30.00F
JUNEAU         CLOUDY    50  47  92 CALM      30.00S
$$

LSZ147-162-011100-
LAKE SUPERIOR

STATION/POSITION TIME  TEMP    WIND        PRES    WAVE
                       AIR SEA DIR/SP/G            HT/PER
                 (UTC) (F)     (DEG/KT/KT) (MB)    (FT/S)
W MID LAKE BUOY  0850   49 50  150/ 16/ 19 1014.2F   2/ 4
DEVILS ISLAND    0900   50     150/  6/  7 1014.1F
SAXON HARBOR     0900   42        CALM     1014.2
$$

LMZ867-665-643>646-011100-
LAKE MICHIGAN

STATION/POSITION TIME  TEMP    WIND        PRES    WAVE
                       AIR SEA DIR/SP/G            HT/PER
                 (UTC) (F)     (DEG/KT/KT) (MB)    (FT/S)
CHAMBERS ISLAND  0900   52     140/  2/  5 1016.6F
S GREEN BAY BUOY 0900   53                 1017.5F
N MID LAKE BUOY  0850   54 58  190/ 10/ 12 1017.5F   1/ 3
NORTHPORT PIER   0900   53     150/  9/ 11 1016.6F
SISTER BAY       0857             CALM       N/A
KEWAUNEE LAKESHO 0900   53     160/  8/ 10 1015.8F
SHEBOYGAN LAKESH 0900   55 54  140/ 13/ 15 1016.7R
PORT WASHINGTON  0900   57     160/  9/ 10 1016.6S
ATWATER BUOY     0900   57     120/  8/  8 1016.8F
MILWAUKEE LAKESH 0900   57     140/ 10/ 13   N/A
S MID LAKE BUOY  0850   57 62  130/ 10/ 14 1016.4S   2/ 5
KENOSHA   LAKESH 0900   57     140/ 13/ 15 1015.9S
$$

TC  - TEMPERATURE IN CELSIUS
VSB - VISIBILITY IN STATUTE MILES
WCI - WIND CHILL INDEX
HX  - HEAT INDEX



USA.gov is the U.S. government's official web portal to all federal, state and local government web resources and services.